This demonstration page uses our WeatherBlox Daily Observations layout. Learn more.

Left ArrowRight Arrow

Hourly Observations for February 26, 2015

Temp ( °F °C ) Dew Point ( °F °C ) Humidity (%) Winds ( mph kmh ) Pressure ( in mb ) Visibility ( mi km ) Precip ( " mm )
12:15 am 00:15 Cloudy 12 -11 3 -16 67 67 N 24 39 30.48 1032 10 16 0.00 0.00
12:35 am 00:35 Cloudy 10 -12 1 -17 67 67 N 28 44 30.48 1032 10 16 0.00 0.00
12:55 am 00:55 Cloudy 10 -12 0 -18 61 61 N 25 41 30.48 1032 10 16 0.00 0.00
1:15 am 01:15 Cloudy 10 -12 1 -17 67 67 N 23 37 30.48 1032 10 16 0.00 0.00
1:35 am 01:35 Cloudy 10 -12 1 -17 67 67 N 21 33 30.48 1032 10 16 0.00 0.00
1:55 am 01:55 Cloudy 10 -12 1 -17 67 67 N 21 33 30.50 1033 10 16 0.00 0.00
2:15 am 02:15 Cloudy 10 -12 1 -17 67 67 N 21 33 30.50 1033 10 16 0.00 0.00
2:35 am 02:35 Mostly Cloudy 9 -13 1 -17 72 72 N 16 26 30.53 1034 10 16 0.00 0.00
2:55 am 02:55 Mostly Clear 9 -13 1 -17 72 72 N 17 28 30.53 1034 10 16 0.00 0.00
3:15 am 03:15 Clear 9 -13 0 -18 66 66 N 21 33 30.53 1034 10 16 0.00 0.00
3:35 am 03:35 Clear 9 -13 -2 -19 61 61 N 23 37 30.53 1034 10 16 0.00 0.00
3:55 am 03:55 Clear 7 -14 -2 -19 66 66 N 22 35 30.56 1035 10 16 0.00 0.00
4:15 am 04:15 Clear 7 -14 -2 -19 66 66 N 20 31 30.56 1035 10 16 0.00 0.00
4:35 am 04:35 Clear 7 -14 -2 -19 66 66 N 20 31 30.56 1035 10 16 0.00 0.00
4:55 am 04:55 Clear 7 -14 -2 -19 66 66 N 16 26 30.59 1036 10 16 0.00 0.00
5:15 am 05:15 Clear 5 -15 -2 -19 72 72 N 15 24 30.62 1037 10 16 0.00 0.00
5:35 am 05:35 Clear 5 -15 -2 -19 72 72 N 13 20 30.62 1037 10 16 0.00 0.00
5:55 am 05:55 Clear 3 -16 -2 -19 78 78 N 13 20 30.62 1037 10 16 0.00 0.00
6:15 am 06:15 Clear 3 -16 -2 -19 78 78 N 16 26 30.65 1038 10 16 0.00 0.00
6:35 am 06:35 Clear 3 -16 -2 -19 78 78 N 16 26 30.65 1038 10 16 0.00 0.00
6:55 am 06:55 Clear 3 -16 -4 -20 72 72 N 16 26 30.65 1038 10 16 0.00 0.00
7:15 am 07:15 Sunny 3 -16 -6 -21 66 66 N 17 28 30.65 1038 10 16 0.00 0.00
7:35 am 07:35 Sunny 3 -16 -4 -20 72 72 N 14 22 30.65 1038 10 16 0.00 0.00
7:55 am 07:55 Sunny 3 -16 -4 -20 72 72 N 14 22 30.65 1038 10 16 0.00 0.00
8:15 am 08:15 Sunny 3 -16 -2 -19 78 78 N 14 22 30.65 1038 10 16 0.00 0.00
8:35 am 08:35 Sunny 5 -15 -2 -19 72 72 N 15 24 30.68 1039 10 16 0.00 0.00
8:55 am 08:55 Mostly Sunny 7 -14 0 -18 72 72 N 17 28 30.68 1039 10 16 0.00 0.00
9:15 am 09:15 Mostly Sunny 9 -13 -2 -19 61 61 N 17 28 30.65 1038 10 16 0.00 0.00
9:35 am 09:35 Mostly Sunny 9 -13 -4 -20 56 56 N 20 31 30.65 1038 10 16 0.00 0.00
9:55 am 09:55 Mostly Sunny 9 -13 -2 -19 61 61 N 16 26 30.65 1038 10 16 0.00 0.00
10:15 am 10:15 Mostly Sunny 10 -12 -2 -19 56 56 N 17 28 30.65 1038 10 16 0.00 0.00
10:35 am 10:35 Mostly Sunny 10 -12 0 -18 61 61 N 16 26 30.65 1038 10 16 0.00 0.00
10:55 am 10:55 Partly Cloudy 12 -11 0 -18 57 57 N 15 24 30.65 1038 10 16 0.00 0.00
11:15 am 11:15 Mostly Sunny 12 -11 -2 -19 52 52 N 14 22 30.65 1038 10 16 0.00 0.00
11:35 am 11:35 Sunny 12 -11 -4 -20 48 48 N 17 28 30.65 1038 10 16 0.00 0.00
11:55 am 11:55 Sunny 14 -10 -2 -19 48 48 N 18 30 30.62 1037 10 16 0.00 0.00
12:15 pm 12:15 Sunny 14 -10 -2 -19 48 48 N 21 33 30.62 1037 10 16 0.00 0.00
12:35 pm 12:35 Sunny 16 -9 -4 -20 41 41 N 14 22 30.62 1037 10 16 0.00 0.00
12:55 pm 12:55 Sunny 16 -9 -4 -20 41 41 N 16 26 30.62 1037 10 16 0.00 0.00
1:15 pm 13:15 Sunny 16 -9 -4 -20 41 41 N 13 20 30.62 1037 10 16 0.00 0.00
1:35 pm 13:35 Sunny 16 -9 -6 -21 37 37 N 10 17 30.62 1037 10 16 0.00 0.00
1:55 pm 13:55 Sunny 18 -8 -4 -20 38 38 NNW 14 22 30.56 1035 10 16 0.00 0.00
2:15 pm 14:15 Sunny 18 -8 -6 -21 35 35 NNW 13 20 30.56 1035 10 16 0.00 0.00
2:35 pm 14:35 Sunny 18 -8 -6 -21 35 35 NNW 16 26 30.56 1035 10 16 0.00 0.00
2:55 pm 14:55 Sunny 18 -8 -8 -22 32 32 N 13 20 30.56 1035 10 16 0.00 0.00
3:15 pm 15:15 Sunny 18 -8 -8 -22 32 32 N 13 20 30.56 1035 10 16 0.00 0.00
3:35 pm 15:35 Sunny 19 -7 -8 -22 29 29 N 14 22 30.56 1035 10 16 0.00 0.00
3:55 pm 15:55 Sunny 18 -8 -8 -22 32 32 NNE 10 17 30.56 1035 10 16 0.00 0.00
4:15 pm 16:15 Sunny 18 -8 -8 -22 32 32 N 10 17 30.56 1035 10 16 0.00 0.00
4:35 pm 16:35 Mostly Sunny 18 -8 -8 -22 32 32 N 14 22 30.56 1035 10 16 0.00 0.00
4:55 pm 16:55 Mostly Sunny 18 -8 -6 -21 35 35 NNE 17 28 30.56 1035 10 16 0.00 0.00
5:15 pm 17:15 Sunny 18 -8 -8 -22 32 32 N 15 24 30.56 1035 10 16 0.00 0.00
5:35 pm 17:35 Sunny 16 -9 -8 -22 34 34 N 14 22 30.59 1036 10 16 0.00 0.00
5:55 pm 17:55 Sunny 16 -9 -8 -22 34 34 N 10 17 30.59 1036 10 16 0.00 0.00
6:15 pm 18:15 Sunny 12 -11 -8 -22 40 40 NNE 12 19 30.59 1036 10 16 0.00 0.00
6:35 pm 18:35 Clear 10 -12 -8 -22 44 44 N 9 15 30.65 1038 10 16 0.00 0.00
6:55 pm 18:55 Clear 9 -13 -8 -22 47 47 N 8 13 30.65 1038 10 16 0.00 0.00
7:15 pm 19:15 Clear 9 -13 -8 -22 47 47 N 8 13 30.65 1038 10 16 0.00 0.00
7:35 pm 19:35 Clear 5 -15 -9 -23 51 51 N 8 13 30.68 1039 10 16 0.00 0.00
7:55 pm 19:55 Clear 7 -14 -6 -21 56 56 NNE 7 11 30.68 1039 10 16 0.00 0.00
8:15 pm 20:15 Clear 5 -15 -8 -22 55 55 NNE 6 9 30.71 1040 10 16 0.00 0.00
8:35 pm 20:35 Clear 3 -16 -8 -22 60 60 NNE 7 11 30.71 1040 10 16 0.00 0.00
8:55 pm 20:55 Clear 3 -16 -8 -22 60 60 NNE 7 11 30.71 1040 10 16 0.00 0.00
9:15 pm 21:15 Clear 1 -17 -8 -22 65 65 NNE 8 13 30.74 1041 10 16 0.00 0.00
9:35 pm 21:35 Clear 1 -17 -6 -21 71 71 NNE 7 11 30.77 1042 10 16 0.00 0.00
9:55 pm 21:55 Clear 1 -17 -8 -22 65 65 NNE 7 11 30.77 1042 10 16 0.00 0.00
10:55 pm 22:55 Clear 3 -16 -6 -21 66 66 NNE 3 6 30.74 1041 10 16 0.00 0.00
11:15 pm 23:15 Clear 1 -17 -8 -22 65 65 N 6 9 30.77 1042 10 16 0.00 0.00
11:35 pm 23:35 Clear 1 -17 -2 -19 85 85 N 5 7 30.77 1042 10 16 0.00 0.00
11:55 pm 23:55 Clear 1 -17 -6 -21 71 71 N 3 6 30.77 1042 10 16 0.00 0.00

Powered by AerisWeather